User: anonymous   Login
Location: Unspecified
(0.0000°N, 0.0000°E)
Time: 04:36:54
(UTC+00:00)
Language:

Transit VE-5 - Orbit

View from above orbital plane
View from above orbital plane
View from above satellite
View from above satellite

Ground track
Ground track

The orbit data is extracted from the following two-line orbital elements,

1   959U 64083C   18020.54029654 +.00000058 +00000-0 +63662-4 0  9990
2   959 089.9940 187.5877 0041704 001.3002 031.1438 13.61535903632411
Epoch (UTC): 20 January 2018 12:58:01
Eccentricity: 0.0041704
inclination: 89.9940°
perigee height: 999 km
apogee height: 1061 km
right ascension of ascending node: 187.5877°
argument of perigee: 1.3002°
revolutions per day: 13.61535903
mean anomaly at epoch: 31.1438°
orbit number at epoch: 63241

The dashed part of the orbit path shows where the satellite is in the earth's shadow,  

DLR